Hourly Weather Roundup
Issued by NWS

Home | Current Version | Previous Version | Text Only | Print | Product List | Glossary On
Versions: 1 2 3 4 5 6 7 8 9 10 11 12 13 14 15 16 17 18 19 20 21 22 23 24 25 26 27 28 29 30 31 32 33 34 35 36 37 38 39 40 41 42 43 44 45 46 47 48 49 50
000
NZUS43 KILX 280610
HWRCRS

CRS HOURLY WEATHER ROUNDUP
NATIONAL WEATHER SERVICE, LINCOLN IL
100 AM CDT THU MAY 28 2015


CITY           SKY/WX    TMP DP  RH WIND       PRES   REMARKS
CHAMPAIGN      CLEAR     61  53  75 E6        30.16R
LAWRENCEVILLE  MOCLDY    67  63  87 SW6       30.15R
PEORIA         CLEAR     63  57  81 CALM      30.16R
SPRINGFIELD    PTCLDY    60  57  89 CALM      30.16R
$$


CITY           SKY/WX    TMP DP  RH WIND       PRES   REMARKS
BLOOMINGTON    PTCLDY    61  56  83 CALM      30.18R
DECATUR        CLEAR     61  57  87 NE6       30.16R
EFFINGHAM      CLEAR     61  58  90 CALM      30.17R
FLORA          MOCLDY    65  61  86 CALM      30.15S
GALESBURG      PTCLDY    60  57  91 CALM      30.16R
JACKSONVILLE   CLEAR     63  59  89 CALM      30.16R
LACON          CLEAR     58  56  92 CALM      30.15R
LINCOLN        PTCLDY    63  57  81 CALM      30.15R
LITCHFIELD     CLEAR     60  57  91 CALM      30.16R

CITY           SKY/WX    TMP DP  RH WIND       PRES   REMARKS
MACOMB         PTCLDY    61  59  92 CALM      30.18R
MATTOON        NOT AVBL
MOLINE         CLEAR     62  57  83 CALM      30.14R
OLNEY          MOCLDY    64  63  94 CALM      30.15R
PARIS          CLEAR     60  56  87 N5        30.16S
PONTIAC        CLEAR     59  57  91 CALM      30.17R
QUINCY         CLEAR     66  56  70 SE6       30.15R
RANTOUL        CLEAR     63  55  77 N3        30.16S
ROBINSON       MOCLDY    66  60  81 CALM      30.15S
TAYLORVILLE    CLEAR     61  59  94 CALM      30.16R
TERRE HAUTE    PTCLDY    62  59  90 CALM      30.15R
$$


CITY           SKY/WX    TMP DP  RH WIND       PRES   REMARKS
BURLINGTON     PTCLDY    63  59  87 CALM      30.15R
CHICAGO        CLEAR     60  54  80 S6        30.14R
DES MOINES     MOCLDY    67  58  72 S7        30.11R
EVANSVILLE     MOCLDY    67  64  90 SW5       30.16R
INDIANAPOLIS   MOCLDY    66  59  78 NE7       30.14R
KANSAS CITY    MOCLDY    69  55  60 SE8       30.09S
MILWAUKEE      CLEAR     60  54  80 CALM      30.12R
ST LOUIS       PTCLDY    69  57  65 CALM      30.15R
$$




USA.gov is the U.S. government's official web portal to all federal, state and local government web resources and services.